Weather at Montmagny Airport

Public forecast

Using degrees Celsius for public forecast. Weather courtesy of forecast.io.

Closest aviation weather report (METAR) to Montmagny Airport

Closest report is Quebec Jean Lesage International Airport, 38.2 nm (70.7 km) WSW. Retrieved 2020/09/18 22:00 UTC (38 minutes ago):

CYQB 182200Z 29004KT 220V320 30SM FEW070 BKN096 11/00 A3013 RMK CU1AC6 SLP208

Closest aviation forecast (TAF) to Montmagny Airport

Forecast is more than 12 hours old.

Closest forecast is Charlevoix Airport, 37.7 nm (69.8 km) NNE. Retrieved 2018/06/10 18:00 UTC (2 years ago):

TAF CYML 101730Z 1018/1106 12005KT P6SM FEW060 FM102100 14006KT P6SM SCT080 BECMG 1021/1023 VRB03KT RMK NXT FCST BY 110000Z